Date String (YYYY-MM-DD hh:mm:ss) UTC,Instrument flags,Ambient pressure (hPa),Sample flow (lpm),Bypass flow (lpm),Sample temperature (°C),Ambient temperature (°C),ASC tube jacket temperature (°C),LED temperature (°C),Box temperature (°C),Sample RH (%),Span deviation,Mass concentration (μg/m³),Mass concentration (μg/m³),Mass concentration (μg/m³)
DateTimeUTC,F1_M11,P_M11,Q1_M11,Q2_M11,T1_M11,T2_M11,T3_M11,T4_M11,T5_M11,U1_M11,ZSPAN_M11,X0_M11,X2_M11,X1_M11
2023-02-07 15:00:00,,0828.9,5.00,0.00,22.3,20.9,00.0,31.2,24.0,06.2,0000.0,0005.76,0001.39,0001.02
2023-02-07 15:01:00,,0828.9,5.02,0.00,22.4,22.0,00.0,31.2,24.2,06.3,0000.0,0005.58,0001.39,0001.02
2023-02-07 15:02:00,,0829.0,4.99,0.00,22.5,23.2,00.0,31.2,24.6,06.9,0000.0,0004.21,0001.35,0001.01
2023-02-07 15:03:00,,0828.9,4.99,0.00,22.6,23.1,00.0,31.2,24.7,06.4,0000.0,0004.19,0001.33,0001.01
2023-02-07 15:04:00,,0828.9,4.99,0.00,22.6,22.6,00.0,31.3,24.6,06.8,0000.0,0004.29,0001.34,0001.01
2023-02-07 15:05:00,,0828.9,5.01,0.00,22.6,22.3,00.0,31.3,24.5,06.8,0000.0,0004.28,0001.36,0001.01
2023-02-07 15:06:00,,0829.0,4.99,0.00,22.6,22.0,00.0,31.4,24.5,06.2,0000.0,0003.23,0001.36,0001.00
2023-02-07 15:07:00,,0828.9,5.01,0.00,22.6,21.8,00.0,31.4,24.4,06.9,0000.0,0003.10,0001.39,0001.01
2023-02-07 15:08:00,,0828.9,5.01,0.00,22.6,21.7,00.0,31.4,24.4,06.6,0000.0,0002.94,0001.38,0001.01
2023-02-07 15:09:00,,0828.9,5.01,0.00,22.6,21.6,00.0,31.4,24.4,07.1,0000.0,0002.54,0001.41,0001.03
2023-02-07 15:10:00,,0828.9,5.01,0.00,22.6,21.5,00.0,31.4,24.4,06.9,0000.0,0002.64,0001.45,0001.04
2023-02-07 15:11:00,,0828.9,4.98,0.00,22.6,21.5,00.0,31.4,24.4,06.8,0000.0,0003.50,0001.52,0001.06
2023-02-07 15:12:00,,0828.9,4.97,0.00,22.6,21.4,00.0,31.4,24.4,06.8,0000.0,0003.93,0001.54,0001.06
2023-02-07 15:13:00,,0829.0,5.01,0.00,22.6,21.4,00.0,31.4,24.3,07.5,0000.0,0004.20,0001.58,0001.08
2023-02-07 15:14:00,,0829.0,4.99,0.00,22.6,21.3,00.0,31.4,24.3,07.9,0000.0,0005.06,0001.64,0001.09
2023-02-07 15:15:00,,0829.0,5.01,0.00,22.6,21.3,00.0,31.4,24.3,07.9,0000.0,0005.06,0001.68,0001.10
2023-02-07 15:16:00,,0829.1,5.00,0.00,22.6,21.3,00.0,31.4,24.3,07.7,0000.0,0006.32,0001.76,0001.12
2023-02-07 15:17:00,,0829.0,4.98,0.00,22.6,21.3,00.0,31.4,24.3,08.1,0000.0,0008.12,0001.85,0001.14
2023-02-07 15:18:00,,0829.1,5.01,0.00,22.6,21.3,00.0,31.4,24.3,07.9,0000.0,0008.38,0001.92,0001.15
2023-02-07 15:19:00,,0829.0,5.00,0.00,22.6,21.3,00.0,31.4,24.3,07.6,0000.0,0008.35,0001.94,0001.15
2023-02-07 15:20:00,,0829.1,4.99,0.00,22.6,21.3,00.0,31.4,24.3,07.8,0000.0,0008.34,0001.96,0001.16
2023-02-07 15:21:00,,0829.1,5.01,0.00,22.6,21.3,00.0,31.4,24.3,08.1,0000.0,0008.24,0001.93,0001.15
2023-02-07 15:22:00,,0829.1,5.00,0.00,22.6,21.3,00.0,31.4,24.3,07.8,0000.0,0007.79,0001.85,0001.14
2023-02-07 15:23:00,,0829.1,4.99,0.00,22.6,21.3,00.0,31.4,24.3,07.8,0000.0,0007.53,0001.86,0001.15
2023-02-07 15:24:00,,0829.1,5.00,0.00,22.6,21.3,00.0,31.4,24.2,07.8,0000.0,0007.52,0001.87,0001.13
2023-02-07 15:25:00,,0829.1,5.00,0.00,22.6,21.3,00.0,31.4,24.3,08.0,0000.0,0006.72,0001.85,0001.13
2023-02-07 15:26:00,,0829.2,4.99,0.00,22.6,21.2,00.0,31.4,24.3,08.7,0000.0,0006.66,0001.83,0001.13
2023-02-07 15:27:00,,0829.2,5.00,0.00,22.6,21.3,00.0,31.4,24.3,08.9,0000.0,0005.81,0001.76,0001.14
2023-02-07 15:28:00,,0829.2,5.00,0.00,22.6,21.3,00.0,31.4,24.4,09.0,0000.0,0003.17,0001.74,0001.16
2023-02-07 15:29:00,,0829.2,4.99,0.00,22.6,21.3,00.0,31.4,24.4,09.1,0000.0,0002.80,0001.74,0001.19
2023-02-07 15:30:00,,0829.2,5.00,0.00,22.6,21.3,00.0,31.4,24.4,09.0,0000.0,0002.75,0001.76,0001.21
2023-02-07 15:31:00,,0829.2,4.99,0.00,22.6,21.4,00.0,31.4,24.4,09.0,0000.0,0002.80,0001.77,0001.23
2023-02-07 15:32:00,,0829.2,4.99,0.00,22.6,21.4,00.0,31.4,24.4,08.6,0000.0,0002.88,0001.82,0001.27
2023-02-07 15:33:00,,0829.2,5.01,0.00,22.6,21.4,00.0,31.4,24.4,08.7,0000.0,0003.03,0001.86,0001.29
2023-02-07 15:34:00,,0829.2,4.98,0.00,22.6,21.4,00.0,31.4,24.4,08.9,0000.0,0003.74,0001.87,0001.31
2023-02-07 15:35:00,,0829.2,5.01,0.00,22.6,21.5,00.0,31.4,24.4,08.9,0000.0,0004.36,0001.86,0001.34
2023-02-07 15:36:00,,0829.3,5.00,0.00,22.6,21.5,00.0,31.4,24.4,08.4,0000.0,0004.26,0001.83,0001.36
2023-02-07 15:37:00,,0829.3,4.99,0.00,22.6,21.5,00.0,31.4,24.4,08.8,0000.0,0004.41,0001.87,0001.35
2023-02-07 15:38:00,,0829.2,4.99,0.00,22.7,21.5,00.0,31.4,24.4,08.6,0000.0,0004.57,0001.91,0001.35
2023-02-07 15:39:00,,0829.3,5.01,0.00,22.7,21.5,00.0,31.4,24.5,08.2,0000.0,0004.49,0001.87,0001.33
2023-02-07 15:40:00,,0829.2,5.01,0.00,22.7,21.5,00.0,31.5,24.4,08.3,0000.0,0004.22,0001.78,0001.31
2023-02-07 15:41:00,,0829.2,4.99,0.00,22.7,21.5,00.0,31.5,24.5,08.0,0000.0,0004.19,0001.75,0001.30
2023-02-07 15:42:00,,0829.3,5.01,0.00,22.7,21.5,00.0,31.5,24.4,07.9,0000.0,0004.18,0001.75,0001.29
2023-02-07 15:43:00,,0829.3,5.01,0.00,22.7,21.5,00.0,31.5,24.5,07.5,0000.0,0004.15,0001.73,0001.27
2023-02-07 15:44:00,,0829.3,4.99,0.00,22.7,21.5,00.0,31.5,24.5,07.4,0000.0,0004.26,0001.76,0001.26
2023-02-07 15:45:00,,0829.2,5.00,0.00,22.7,21.6,00.0,31.5,24.5,07.5,0000.0,0006.65,0001.82,0001.26
2023-02-07 15:46:00,,0829.2,5.00,0.00,22.7,21.6,00.0,31.5,24.5,07.6,0000.0,0008.65,0002.04,0001.26
2023-02-07 15:47:00,,0829.2,4.99,0.00,22.8,21.6,00.0,31.5,24.5,07.7,0000.0,0009.21,0002.24,0001.27
2023-02-07 15:48:00,,0829.2,5.00,0.00,22.8,21.6,00.0,31.5,24.5,08.0,0000.0,0009.99,0002.44,0001.28
2023-02-07 15:49:00,,0829.3,4.99,0.00,22.8,21.6,00.0,31.5,24.5,09.6,0000.0,0010.43,0002.42,0001.30
2023-02-07 15:50:00,,0829.3,5.02,0.00,22.8,21.6,00.0,31.5,24.6,09.7,0000.0,0010.48,0002.44,0001.32
2023-02-07 15:51:00,,0829.3,5.01,0.00,22.8,21.6,00.0,31.6,24.6,09.9,0000.0,0010.55,0002.51,0001.35
2023-02-07 15:52:00,,0829.3,5.01,0.00,22.8,21.6,00.0,31.6,24.6,09.8,0000.0,0010.67,0002.61,0001.38
2023-02-07 15:53:00,,0829.3,5.00,0.00,22.8,21.6,00.0,31.6,24.6,10.4,0000.0,0010.71,0002.64,0001.42
2023-02-07 15:54:00,,0829.3,5.01,0.00,22.8,21.6,00.0,31.6,24.6,09.9,0000.0,0010.79,0002.71,0001.46
2023-02-07 15:55:00,,0829.3,4.99,0.00,22.9,21.7,00.0,31.6,24.6,09.0,0000.0,0010.96,0002.72,0001.47
2023-02-07 15:56:00,,0829.3,5.00,0.00,22.9,21.7,00.0,31.6,24.6,09.0,0000.0,0010.01,0002.74,0001.47
2023-02-07 15:57:00,,0829.3,5.00,0.00,22.9,21.7,00.0,31.6,24.6,09.5,0000.0,0007.80,0002.60,0001.47
2023-02-07 15:58:00,,0829.3,5.00,0.00,22.9,21.7,00.0,31.6,24.6,09.4,0000.0,0006.93,0002.45,0001.47
2023-02-07 15:59:00,,0829.3,5.01,0.00,22.9,21.7,00.0,31.6,24.6,08.8,0000.0,0006.81,0002.30,0001.46
